Content
SEND FEEDBACK

Daily
Averages
Monthly
Summary
United States of America

ASHEVILLE, NORTH CAROLINA


Home > North America > United States > North Carolina
Elevation: 2240 feet     Latitude: 35 36N     Longitude: 082 32W

WEATHER
 
SELECT A DAY
Number of Records: 226,235;   Date Range: 1/1/95 - 8/25/14
 
SHARE

PRINT THIS DATA

[ ← Previous Day ]
WEATHER ALMANAC - APRIL 23, 2013
[ Next Day → ]
[ °C ]   °F
Weather ElementAverageHighLow
Temperature53.3 °F69.1 °F (3:54 pm)34 °F (6:54 am)
Dewpoint38.3 °F44.1 °F (10:54 pm)33.1 °F (6:54 am)
Humidity61.1 %96 % (6:54 am)32 % (2:54 pm)
Barometer30.18 in30.27 in (8:54 am)30.09 in (4:54 pm)
Wind Speed4.3 mph11.5 mph (6:54 pm)
Wind Gust17.3 mph (4:54 pm)
Weather ElementAverage
Visibility10 mi
Wind DirectionENE (80 °)

Weather ElementTotal
Precipitation---
Heating Degree Days13.5 (Base 65)
Growing Degree Days1.6 (Base 50)
Averaged from 23 records on April 23, 2013
WEATHER CONDITIONS BREAKOUT
WIND DIRECTION BREAKOUT
WEATHER BY HOUR - APRIL 23, 2013
[ °C ]   °F
Local TimeTemperatureDewpointHumidityBarometerVisibilityWind DirectionWind SpeedGust SpeedPrecipitationEventsConditions
1:54 AM41.0 °F35.1 °F79 %30.26 in10.0 miCalmClear
2:54 AM39.0 °F36.0 °F89 %30.25 in10.0 miCalmClear
3:54 AM37.9 °F35.1 °F89 %30.23 in10.0 miCalmClear
4:54 AM36.0 °F34.0 °F93 %30.23 in10.0 miCalmClear
5:54 AM35.6 °F33.8 °F93 %30.23 in9.0 miCalmClear
6:54 AM34.0 °F33.1 °F96 %30.24 in10.0 miCalmClear
7:54 AM37.0 °F33.1 °F86 %30.24 in10.0 miCalmClear
8:54 AM43.0 °F35.1 °F74 %30.27 in10.0 miCalmClear
9:54 AM48.9 °F33.1 °F54 %30.23 in10.0 miCalmClear
10:54 AM55.0 °F35.1 °F47 %30.24 in10.0 miVariable3.5 mphClear
11:54 AM59.0 °F36.0 °F42 %30.22 in10.0 miCalmClear
12:54 PM63.0 °F39.0 °F41 %30.19 in10.0 miVariable4.6 mphClear
1:54 PM66.0 °F41.0 °F40 %30.15 in10.0 miSW (220°)4.6 mphClear
2:54 PM68.0 °F37.0 °F32 %30.13 in10.0 miSouth (170°)8.1 mphClear
3:54 PM69.1 °F39.9 °F35 %30.10 in10.0 miSouth (180°)10.4 mphClear
4:54 PM68.0 °F42.1 °F39 %30.09 in10.0 miESE (120°)10.4 mph17.3 mphClear
5:54 PM69.1 °F43.0 °F39 %30.09 in10.0 miSSE (150°)10.4 mph17.3 mphClear
6:54 PM66.9 °F43.0 °F42 %30.09 in10.0 miSouth (180°)11.5 mphClear
7:54 PM63.0 °F43.0 °F48 %30.10 in10.0 miSouth (180°)10.4 mphClear
8:54 PM61.0 °F43.0 °F52 %30.11 in10.0 miSouth (170°)9.2 mphClear
9:54 PM57.9 °F43.0 °F58 %30.12 in10.0 miSSE (160°)5.8 mphClear
10:54 PM54.0 °F44.1 °F69 %30.12 in10.0 miSouth (170°)5.8 mphClear
11:54 PM54.0 °F44.1 °F69 %30.12 in10.0 miSE (140°)4.6 mphClear
Hourly data recorded from KAVL, located miles away from Asheville, North Carolina







STORIES FROM OUR PARTNERS